Weather History for Conway, SC

Change the Weather History Date:

Friday, January 25, 2013

  Actual Average Record
Temperature  
Mean Temperature 30 °F -  
Max Temperature 37 °F 60 °F 51 °F (2014)
Min Temperature 24 °F 36 °F 12 °F (2014)
Degree Days  
Heating Degree Days 34    
Moisture  
Dew Point 19 °F    
Average Humidity 60    
Maximum Humidity 75    
Minimum Humidity 40    
Precipitation  
Precipitation 0.00 in - - ()
Sea Level Pressure  
Sea Level Pressure 30.34 in    
Wind  
Wind Speed 4 mph (NNE)    
Max Wind Speed 9 mph    
Max Gust Speed -    
Visibility 9 miles    
Events Rain    
Averages and records for this station are not official NWS values.
T = Trace of Precipitation, MM = Missing Value Source: NWS Daily Summary

Daily Weather History Graph

Daily Weather History Graph

Search for Another Location

Airport:

Trip Planner

Search our weather history database for the weather conditions in past years. The results will help you decide how hot, cold, wet, or windy it might be!

Date:

Astronomy

Jan. 25, 2013 Rise Set
Actual Time 7:17 AM EST 5:40 PM EST
Civil Twilight 6:50 AM EST 6:07 PM EST
Nautical Twilight 6:20 AM EST 6:37 PM EST
Astronomical Twilight 5:51 AM EST 7:07 PM EST
Moon 4:36 PM EST (1/25) 5:55 AM EST (1/25)
Length of Visible Light 11h 16m
Length of Day
10h 23m
Waxing Gibbous, 98% of the Moon is Illuminated
Jan 25
Waxing Gibbous
Jan 26
Full
Feb 3
Last Quarter
Feb 10
New
Feb 17
First Quarter

Hourly Weather History & Observations

Time (EST) Temp. Windchill Dew Point Humidity Pressure Visibility Wind Dir Wind Speed Gust Speed Precip Events Conditions
12:15 AM 28.4 °F 24.6 °F 12.2 °F 51% 30.51 in 7.0 mi NE 3.5 mph - N/A   Clear
12:35 AM 28.4 °F 23.3 °F 14.0 °F 55% 30.51 in 7.0 mi NE 4.6 mph - N/A   Clear
12:55 AM 28.4 °F 23.3 °F 12.2 °F 51% 30.52 in 7.0 mi NE 4.6 mph - N/A   Clear
1:15 AM 28.4 °F 24.6 °F 12.2 °F 51% 30.51 in 7.0 mi NE 3.5 mph - N/A   Clear
1:35 AM 28.4 °F 24.6 °F 12.2 °F 51% 30.52 in 10.0 mi NE 3.5 mph - N/A   Clear
1:55 AM 28.4 °F 22.2 °F 12.2 °F 51% 30.52 in 7.0 mi NNE 5.8 mph - N/A   Clear
2:15 AM 26.6 °F 20.0 °F 12.2 °F 55% 30.52 in 7.0 mi NE 5.8 mph - N/A   Clear
2:35 AM 26.6 °F 22.6 °F 12.2 °F 55% 30.52 in 7.0 mi NE 3.5 mph - N/A   Clear
2:55 AM 26.6 °F 20.0 °F 12.2 °F 55% 30.50 in 7.0 mi NE 5.8 mph - N/A   Clear
3:15 AM 26.6 °F 20.0 °F 12.2 °F 55% 30.51 in 10.0 mi NNE 5.8 mph - N/A   Clear
3:35 AM 26.6 °F 21.2 °F 12.2 °F 55% 30.51 in 10.0 mi NNE 4.6 mph - N/A   Clear
3:55 AM 26.6 °F 21.2 °F 12.2 °F 55% 30.51 in 10.0 mi NNE 4.6 mph - N/A   Clear
4:15 AM 26.6 °F 21.2 °F 12.2 °F 55% 30.51 in 7.0 mi NNE 4.6 mph - N/A   Clear
4:35 AM 26.6 °F 21.2 °F 12.2 °F 55% 30.50 in 10.0 mi NNE 4.6 mph - N/A   Clear
4:55 AM 26.6 °F 21.2 °F 12.2 °F 55% 30.49 in 7.0 mi NE 4.6 mph - N/A   Clear
5:15 AM 24.8 °F 19.1 °F 12.2 °F 59% 30.48 in 10.0 mi NNE 4.6 mph - N/A   Clear
5:35 AM 26.6 °F 21.2 °F 12.2 °F 55% 30.48 in 10.0 mi NE 4.6 mph - N/A   Clear
5:55 AM 26.6 °F 19.1 °F 12.2 °F 55% 30.48 in 10.0 mi NE 6.9 mph - N/A   Clear
6:15 AM 26.6 °F 20.0 °F 12.2 °F 55% 30.48 in 10.0 mi NNE 5.8 mph - N/A   Clear
6:35 AM 26.6 °F 18.2 °F 10.4 °F 51% 30.48 in 10.0 mi NE 8.1 mph - N/A   Clear
6:55 AM 26.6 °F 19.1 °F 10.4 °F 51% 30.47 in 10.0 mi NE 6.9 mph - N/A   Clear
7:15 AM 26.6 °F 19.1 °F 10.4 °F 51% 30.47 in 10.0 mi NE 6.9 mph - N/A   Clear
7:35 AM 26.6 °F 19.1 °F 10.4 °F 51% 30.47 in 10.0 mi NE 6.9 mph - N/A   Clear
7:55 AM 28.4 °F 20.4 °F 8.6 °F 43% 30.48 in 7.0 mi NNE 8.1 mph - N/A   Clear
8:35 AM 28.4 °F 20.4 °F 8.6 °F 43% 30.45 in 10.0 mi NNE 8.1 mph - N/A   Clear
8:55 AM 30.2 °F 21.9 °F 8.6 °F 40% 30.45 in 10.0 mi NNE 9.2 mph - N/A   Clear
9:15 AM 30.2 °F 22.6 °F 10.4 °F 44% 30.45 in 10.0 mi NE 8.1 mph - N/A   Clear
9:35 AM 32.0 °F 25.6 °F 12.2 °F 44% 30.44 in 10.0 mi NE 6.9 mph - N/A   Clear
9:55 AM 32.0 °F 25.6 °F 14.0 °F 48% 30.43 in 10.0 mi ENE 6.9 mph - N/A   Mostly Cloudy
10:15 AM 33.8 °F 27.7 °F 17.6 °F 52% 30.43 in 7.0 mi ENE 6.9 mph - N/A   Overcast
10:35 AM 35.6 °F 32.8 °F 19.4 °F 52% 30.43 in 5.0 mi East 3.5 mph - N/A   Haze
10:55 AM 35.6 °F 29.2 °F 19.4 °F 52% 30.42 in 5.0 mi NNE 8.1 mph - N/A   Haze
11:15 AM 35.6 °F 29.9 °F 21.2 °F 56% 30.40 in 7.0 mi NE 6.9 mph - N/A   Overcast
11:35 AM 35.6 °F 30.7 °F 21.2 °F 56% 30.38 in 7.0 mi ENE 5.8 mph - N/A   Overcast
11:55 AM 35.6 °F 31.7 °F 23.0 °F 60% 30.36 in 7.0 mi NNE 4.6 mph - N/A   Overcast
12:15 PM 37.4 °F 33.8 °F 21.2 °F 52% 30.35 in 10.0 mi NNE 4.6 mph - N/A   Overcast
12:35 PM 35.6 °F 32.8 °F 21.2 °F 56% 30.32 in 10.0 mi NE 3.5 mph - N/A   Overcast
12:55 PM 35.6 °F - 23.0 °F 60% 30.31 in 10.0 mi Calm Calm - N/A   Overcast
1:15 PM 37.4 °F - 23.0 °F 56% 30.29 in 10.0 mi Calm Calm - N/A   Overcast
1:35 PM 35.6 °F - 23.0 °F 60% 30.28 in 10.0 mi Calm Calm - N/A   Overcast
2:15 PM 35.6 °F - 23.0 °F 60% 30.25 in 10.0 mi Calm Calm - N/A   Overcast
2:35 PM 35.6 °F - 23.0 °F 60% 30.23 in 10.0 mi Calm Calm - N/A   Overcast
2:55 PM 37.4 °F - 23.0 °F 56% 30.22 in 10.0 mi Calm Calm - N/A   Overcast
3:15 PM 37.4 °F - 24.8 °F 60% 30.21 in 10.0 mi Calm Calm - N/A   Overcast
3:35 PM 37.4 °F - 24.8 °F 60% 30.20 in 10.0 mi Calm Calm - N/A   Overcast
3:55 PM 37.4 °F - 26.6 °F 65% 30.20 in 10.0 mi Calm Calm - N/A   Overcast
4:15 PM 37.4 °F - 26.6 °F 65% 30.20 in 10.0 mi Calm Calm - N/A   Overcast
4:35 PM 37.4 °F - 26.6 °F 65% 30.20 in 10.0 mi Calm Calm - N/A   Overcast
4:55 PM 37.4 °F 33.8 °F 26.6 °F 65% 30.21 in 10.0 mi NNW 4.6 mph - N/A   Overcast
5:15 PM 35.6 °F 32.8 °F 23.0 °F 60% 30.22 in 10.0 mi NW 3.5 mph - N/A   Overcast
5:35 PM 35.6 °F 31.7 °F 23.0 °F 60% 30.20 in 10.0 mi NNW 4.6 mph - N/A Rain Light Rain
5:55 PM 33.8 °F - 26.6 °F 75% 30.18 in 10.0 mi Calm Calm - N/A   Drizzle
6:15 PM 33.8 °F - 26.6 °F 75% 30.18 in 10.0 mi Calm Calm - N/A   Overcast
6:35 PM 33.8 °F - 26.6 °F 75% 30.17 in 10.0 mi Calm Calm - N/A Rain Light Rain
6:55 PM 33.8 °F - 26.6 °F 75% 30.17 in 10.0 mi Calm Calm - N/A   Overcast
7:15 PM 33.8 °F - 26.6 °F 75% 30.19 in 10.0 mi Calm Calm - N/A   Overcast
7:35 PM 33.8 °F - 26.6 °F 75% 30.19 in 10.0 mi Calm Calm - N/A   Overcast
7:55 PM 33.8 °F - 26.6 °F 75% 30.18 in 10.0 mi Calm Calm - N/A   Overcast
8:15 PM 33.8 °F - 26.6 °F 75% 30.18 in 10.0 mi Calm Calm - N/A   Overcast
8:35 PM 33.8 °F - 26.6 °F 75% 30.17 in 10.0 mi Calm Calm - N/A   Overcast
8:55 PM 33.8 °F - 26.6 °F 75% 30.17 in 10.0 mi Calm Calm - N/A   Overcast
9:15 PM 33.8 °F - 26.6 °F 75% 30.16 in 10.0 mi Calm Calm - N/A   Overcast
9:35 PM 33.8 °F - 26.6 °F 75% 30.17 in 10.0 mi Calm Calm - N/A   Overcast
9:55 PM 33.8 °F 30.8 °F 26.6 °F 75% 30.18 in 10.0 mi West 3.5 mph - N/A   Overcast
10:15 PM 33.8 °F 30.8 °F 26.6 °F 75% 30.17 in 10.0 mi North 3.5 mph - N/A   Overcast
10:35 PM 33.8 °F - 26.6 °F 75% 30.17 in 10.0 mi Calm Calm - N/A   Overcast
10:55 PM 33.8 °F 30.8 °F 26.6 °F 75% 30.17 in 10.0 mi NNW 3.5 mph - N/A   Overcast
11:15 PM 33.8 °F - 26.6 °F 75% 30.17 in 10.0 mi Calm Calm - N/A   Overcast
11:35 PM 33.8 °F - 26.6 °F 75% 30.17 in 10.0 mi Calm Calm - N/A   Overcast
11:55 PM 33.8 °F - 26.6 °F 75% 30.17 in 10.0 mi Calm Calm - N/A   Overcast